Location: Gudip?du
(16.9621°N, 80.9090°E)
Time: 11:46:46
(UTC+00:00)

Daily predictions for brighter satellites

Satellite Brightness Start Highest point End
(mag) Time Altitude Azimuth Time Altitude Azimuth Time Altitude Azimuth
Delta 202 4.0 12:21:09 10° WSW 12:26:22 64° SSE 12:32:43 10° E
SAR-Lupe-4 3.6 12:23:13 10° SSE 12:26:41 54° ENE 12:30:08 10° N
Cosmos 2151 3.3 12:23:23 10° N 12:27:31 69° W 12:31:39 10° S
USA 308 3.2 12:29:21 10° SSE 12:30:47 16° ESE 12:32:45 10° ENE
SPOT 1/Viking Rocket 4.4 12:27:01 10° SE 12:31:23 28° ENE 12:35:46 10° NNE
SEDSat Delta rocket 3.8 12:27:04 10° WSW 12:32:39 81° SSE 12:38:55 10° ENE
Cosmos 1953 Rocket 4.4 12:30:46 10° NNE 12:34:37 29° E 12:38:27 10° SE
IRS-P3 4.3 12:31:44 10° SSE 12:36:51 50° ENE 12:41:58 10° N
ATLAS 5 CENTAUR R/B 1.9 12:35:41 10° SSW 12:36:59 15° SSE 12:38:37 10° ESE
SAR-Lupe-1 4.0 12:33:48 10° SSE 12:37:21 68° ENE 12:40:54 10° N
Atlas Centaur 2 1.5 12:35:23 10° SW 12:38:47 46° SSE 12:41:55 12° ENE
Cosmos 2237 4.3 12:33:51 10° S 12:39:25 57° ESE 12:45:01 10° NNE
SMAP 3.8 12:35:02 10° S 12:39:35 59° WSW 12:44:10 10° NNW
Cosmos 724 4.4 12:36:09 10° N 12:41:53 53° ENE 12:47:29 10° SE
CZ-4C R/B 3.6 12:34:17 10° N 12:41:59 40° ENE 12:50:26 10° SE
Cosmos 2266 Rocket 4.3 12:36:22 10° N 12:42:22 69° W 12:48:20 10° S
Cosmos 1825 Rocket 3.4 12:39:42 10° N 12:44:00 80° E 12:48:16 10° S
Landsat 7 4.1 12:39:51 10° S 12:44:27 70° WSW 12:49:05 10° NNW
SL-16 R/B 3.0 12:40:57 10° SSE 12:45:51 31° ESE 12:50:26 11° NE
Meteor 1-26 Rocket 4.1 12:42:07 10° S 12:47:38 81° E 12:53:02 10° N
Cosmos 1553 Rocket 4.0 12:41:53 10° SSE 12:47:48 56° E 12:53:47 10° NNE
Cosmos 2058 Rocket 3.3 12:45:18 10° S 12:49:43 76° W 12:54:11 10° N
SJ-6F 4.3 12:49:22 10° SSE 12:53:18 88° ENE 12:57:15 10° N
Cosmos 2297 Rocket 2.7 12:50:37 10° NNW 12:56:12 64° WSW 13:01:46 10° S
Helios 1A Rocket 2.4 12:53:00 10° N 12:56:23 84° WNW 12:59:46 10° SSW
SWAS 4.2 12:53:53 10° SSW 12:57:54 75° ESE 13:01:43 11° NNE
Cosmos 783 Rocket 4.5 12:52:43 10° NNW 12:58:00 88° ENE 13:03:15 10° SSE
Cosmos 1076 Rocket 3.4 12:58:54 10° N 13:03:13 83° E 13:07:30 10° S
Skynet4D Del rocket 4.4 12:58:09 10° W 13:03:39 47° NNW 13:07:52 20° NE
Cosmos 1980 Rocket 4.4 12:59:50 10° WSW 13:04:10 22° WNW 13:08:31 10° NNW
COSMO-SKYMED 1 3.6 13:04:02 10° N 13:07:56 44° WNW 13:11:50 10° SSW
Cosmos 2278 3.9 13:05:03 10° S 13:10:28 48° ESE 13:14:04 21° NE
Cosmos 2221 2.9 13:07:58 10° SSE 13:11:51 37° E 13:13:08 29° NE
Resurs 1-3 3.6 13:08:35 10° SSE 13:12:44 52° ENE 13:16:54 10° N
Spot 4 Rocket 4.0 13:09:36 10° SSE 13:14:34 57° ENE 13:19:33 10° N
Palapa 6 Rocket 2.8 13:15:26 10° WSW 13:19:18 59° SSE 13:20:20 41° ESE
Ariane H10+ 4.3 13:12:17 10° WSW 13:21:05 30° SSW 13:26:09 10° SE
NOSS 3-1 (C) 3.0 13:18:33 10° S 13:22:41 42° ESE 13:23:26 39° E
BlueWalker 3 2.2 13:22:25 10° NW 13:25:58 62° SW 13:29:32 10° SSE
Cosmos 1417 Rocket 4.4 13:19:53 10° S 13:26:03 65° E 13:31:40 12° NNE
Cosmos 1244 Rocket 4.3 13:21:14 10° N 13:27:24 70° E 13:33:30 10° S
ATLAS CENTAUR R/B 4.4 13:30:19 10° W 13:31:10 11° WSW 13:32:00 10° SW
Cosmos 2263 Rocket 2.3 13:26:09 10° N 13:31:36 47° ENE 13:37:02 10° SE
Hubble Space Telescope 2.9 13:33:48 10° NW 13:35:12 14° NNW 13:35:12 14° NNW
Cosmos 2360 Rocket 2.5 13:31:16 10° S 13:36:35 44° ESE 13:37:01 43° E
YAOGAN 1 2.8 13:32:38 10° S 13:36:50 67° W 13:41:03 10° NNW
Palapa B4 Rocket 3.1 13:33:18 10° W 13:39:35 87° N 13:40:24 62° ENE
SL-08 R/B 4.4 13:36:11 10° N 13:42:31 79° E 13:48:49 10° S
Cosmos 2333 Rocket 2.1 13:37:08 10° SSW 13:42:50 85° ESE 13:45:04 39° NNE
SL-8 R/B 3.5 13:41:10 10° SSW 13:45:52 70° SE 13:45:56 70° ESE
Cosmos 2227 Rocket 2.9 13:42:06 10° NNW 13:47:35 55° WSW 13:53:04 10° S
Cosmos 1386 Rocket 4.4 13:44:33 28° NNE 13:47:51 60° E 13:54:01 10° SSE
USA 59 Rocket 0.9 13:47:45 10° SW 13:52:55 47° WNW 13:53:50 40° NNW
Cosmos 2219 Rocket 3.5 13:48:12 10° SSE 13:50:54 24° SE 13:50:54 24° SE
Centaur D-1AR AC-38 3.7 13:42:51 10° W 13:53:29 66° N 13:54:00 61° NE
NOSS 2-1 (D) 4.2 13:48:11 10° SW 13:53:37 53° WNW 13:54:25 46° NNW
Cosmos 2322 Rocket 2.1 13:55:08 10° SSW 14:00:47 87° WNW 14:01:24 72° N
NOAA 6 4.3 13:56:12 10° S 14:01:15 64° WSW 14:06:18 10° NNW
Resurs 01 Rocket 4.0 13:57:05 10° SSE 13:57:34 13° SSE 13:57:34 13° SSE
Cosmos 2285 Rocket 4.0 13:56:42 10° SSW 14:02:58 80° WNW 14:04:45 50° N
Meteor 1-10 Rocket 4.2 13:59:11 10° S 14:04:44 79° W 14:05:33 65° NNW
NOSS 2-1 (E) 4.4 14:01:49 10° SW 14:07:18 50° WNW 14:07:24 50° WNW
Meteor 1-19 Rocket 4.4 14:02:51 10° SSW 14:08:10 65° W 14:09:05 55° NW
Cosmos 2315 Rocket 4.2 14:11:50 10° SSW 14:18:06 68° W 14:19:31 53° NNW
Atlas Centaur 2 4.2 14:23:34 10° W 14:23:52 12° WNW 14:23:52 12° WNW
SL-16 R/B 4.3 14:25:37 10° WSW 14:29:45 21° WNW 14:32:20 16° NW
Delta 202 4.5 14:30:11 10° W 14:34:54 60° WNW 14:34:54 60° WNW
Atlas Centaur 2 4.4 21:46:45 27° SE 21:46:45 27° SE 21:50:18 10° SE
Cosmos 1980 Rocket 4.3 22:10:15 19° ENE 22:10:46 20° ENE 22:14:43 10° ESE
Ariane H10-3 4.4 22:14:40 24° S 22:14:40 24° S 22:17:31 10° SSE
Cosmos 990 Rocket 4.3 22:46:20 62° SE 22:46:20 62° SE 22:50:50 10° SSE
USA 238 DEB 4.0 22:46:01 63° WSW 22:46:14 64° WSW 22:54:21 10° SSE
USA 238 4.0 22:46:04 64° WSW 22:46:21 64° WSW 22:54:28 10° SSE
Cosmos 1634 Rocket 4.4 22:48:01 50° SSW 22:48:01 50° SSW 22:52:34 10° S
CZ-3 Stage 3 4.4 22:46:32 37° NNW 22:51:09 52° NNE 23:28:07 10° E
Cosmos 1697 Rocket 3.7 22:53:20 34° SSW 22:53:20 34° SSW 22:56:38 10° S
Cosmos 2098 Rocket 3.8 22:53:10 51° NNE 22:54:32 71° E 22:59:45 10° S
Cosmos 2279 Rocket 3.8 22:56:09 52° N 22:57:48 88° W 23:04:03 10° S
Chandra Rocket (1) 3.6 22:58:32 32° SSW 22:58:36 32° SSW 23:06:17 10° SE
SL-16 R/B 2.5 22:54:30 10° S 23:00:38 61° WSW 23:00:38 61° WSW
GPS 2-15 Rocket1 3.1 23:06:11 76° SE 23:06:11 76° SE 23:10:30 10° E
ISS -0.9 23:04:50 10° S 23:07:15 19° SE 23:09:41 10° ENE
COSMOS 2455 4.3 23:06:35 10° N 23:11:51 34° ENE 23:17:11 10° SE
Cosmos 2026 Rocket 4.4 23:06:52 10° S 23:12:47 59° E 23:18:42 10° NNE
USA 59 Rocket 2.7 23:11:32 10° NNE 23:15:24 23° ENE 23:20:20 10° ESE
Cosmos 2180 Rocket 4.4 23:15:08 14° N 23:20:39 82° W 23:27:02 10° S
Meteor 2-3 Rocket 3.6 23:15:27 10° S 23:21:12 74° W 23:26:54 10° N
Cosmos 1606 Rocket 4.4 23:18:04 11° N 23:22:06 50° E 23:26:18 10° SSE
Atlas Centaur 2 4.5 23:28:41 14° WSW 23:31:38 17° SSW 23:36:36 10° S
NOAA 12 4.0 23:26:25 10° NNE 23:31:40 88° ESE 23:36:53 10° SSW
ATLAS 2AS CENTAUR R/B 2.8 23:27:14 10° SSW 23:34:29 85° ESE 23:41:32 10° NNE
UNK 3.8 23:31:34 10° S 23:36:01 53° WSW 23:37:57 31° NW
YAOGAN 20C 4.5 23:31:03 10° SW 23:36:22 57° WNW 23:41:50 10° NNE
SL-16 R/B 4.4 23:32:37 10° NNE 23:36:55 22° ENE 23:41:12 10° ESE
Cosmos 1092 Rocket 3.9 23:35:47 10° S 23:42:05 83° W 23:48:21 10° N
Cosmos 1726 Rocket 3.6 23:41:39 10° N 23:45:47 71° E 23:49:49 10° S
Centaur AC-119 3.9 23:44:19 23° NW 23:45:55 27° N 23:50:11 10° NE
Cosmos 1933 3.2 23:45:27 25° NNW 23:47:23 53° W 23:51:05 10° S
Cosmos 1892 Rocket 4.3 23:50:33 10° SW 23:54:18 29° W 23:58:07 10° NNW
Cosmos 1980 Rocket 2.9 23:52:04 22° WNW 23:54:35 31° WSW 23:59:27 10° SSW
Aurora 2 Rocket 3.2 23:48:13 10° WSW 23:54:52 80° SSE 23:59:38 10° ENE
